Time,TemperatureF,DewpointF,PressureIn,WindDirection,WindDirectionDegrees,WindSpeedMPH,WindSpeedGustMPH,Humidity,HourlyPrecipIn,Conditions,Clouds,dailyrainin,SolarRadiationWatts/m^2,SoftwareType,DateUTC
2013-04-22 00:03:00,34.0,19.0,-100.00,SE,131,5.0,7.0,54,0.00,,,0.00,0.000000,,2013-04-22 04:03:00,
2013-04-22 00:12:00,34.0,19.0,-100.00,SE,131,5.0,7.0,54,0.00,,,0.00,0.000000,,2013-04-22 04:12:00,
2013-04-22 00:43:00,34.0,19.0,-100.00,SE,136,5.0,9.0,53,0.00,,,0.00,0.000000,,2013-04-22 04:43:00,
2013-04-22 00:53:00,34.0,19.0,-100.00,SE,136,5.0,9.0,53,0.00,,,0.00,0.000000,,2013-04-22 04:53:00,
2013-04-22 01:03:00,34.0,19.0,-100.00,SE,136,5.0,9.0,53,0.00,,,0.00,0.000000,,2013-04-22 05:03:00,
2013-04-22 01:12:00,34.0,19.0,-100.00,SE,136,5.0,9.0,53,0.00,,,0.00,0.000000,,2013-04-22 05:12:00,
2013-04-22 01:42:00,34.0,18.0,-100.00,SE,141,5.0,8.0,52,0.00,,,0.00,0.000000,,2013-04-22 05:42:00,
2013-04-22 01:52:00,34.0,18.0,-100.00,SE,141,5.0,8.0,52,0.00,,,0.00,0.000000,,2013-04-22 05:52:00,
2013-04-22 02:02:00,34.0,18.0,-100.00,SE,141,5.0,8.0,52,0.00,,,0.00,0.000000,,2013-04-22 06:02:00,
2013-04-22 02:12:00,34.0,18.0,-100.00,SE,141,5.0,8.0,52,0.00,,,0.00,0.000000,,2013-04-22 06:12:00,
2013-04-22 02:42:00,33.0,19.0,-100.00,SE,142,5.0,7.0,55,0.00,,,0.00,0.000000,,2013-04-22 06:42:00,
2013-04-22 02:52:00,33.0,19.0,-100.00,SE,142,5.0,7.0,55,0.00,,,0.00,0.000000,,2013-04-22 06:52:00,
2013-04-22 03:01:00,33.0,19.0,-100.00,SE,142,5.0,7.0,55,0.00,,,0.00,0.000000,,2013-04-22 07:01:00,
2013-04-22 03:12:00,33.0,19.0,-100.00,SE,142,5.0,7.0,55,0.00,,,0.00,0.000000,,2013-04-22 07:12:00,
2013-04-22 03:42:00,32.0,19.0,-100.00,SE,139,5.0,7.0,59,0.00,,,0.00,0.000000,,2013-04-22 07:42:00,
2013-04-22 03:52:00,32.0,19.0,-100.00,SE,139,5.0,7.0,59,0.00,,,0.00,0.000000,,2013-04-22 07:52:00,
2013-04-22 04:02:00,32.0,19.0,-100.00,SE,139,5.0,7.0,59,0.00,,,0.00,0.000000,,2013-04-22 08:02:00,
2013-04-22 04:11:00,32.0,19.0,-100.00,SE,139,5.0,7.0,59,0.00,,,0.00,0.000000,,2013-04-22 08:11:00,
2013-04-22 04:42:00,32.0,20.0,-100.00,SE,141,5.0,6.0,60,0.00,,,0.00,0.000000,,2013-04-22 08:42:00,
2013-04-22 04:53:00,32.0,20.0,-100.00,SE,141,5.0,6.0,60,0.00,,,0.00,0.000000,,2013-04-22 08:53:00,
2013-04-22 05:01:00,32.0,20.0,-100.00,SE,141,5.0,6.0,60,0.00,,,0.00,0.000000,,2013-04-22 09:01:00,
2013-04-22 05:11:00,32.0,20.0,-100.00,SE,141,5.0,6.0,60,0.00,,,0.00,0.000000,,2013-04-22 09:11:00,
2013-04-22 05:42:00,31.0,21.0,-100.00,SE,138,5.0,6.0,65,0.00,,,0.00,0.000000,,2013-04-22 09:42:00,
2013-04-22 05:53:00,31.0,21.0,-100.00,SE,138,5.0,6.0,65,0.00,,,0.00,0.000000,,2013-04-22 09:53:00,
2013-04-22 06:03:00,31.0,21.0,-100.00,SE,138,5.0,6.0,65,0.00,,,0.00,0.000000,,2013-04-22 10:03:00,
2013-04-22 06:12:00,31.0,21.0,-100.00,SE,138,5.0,6.0,65,0.00,,,0.00,0.000000,,2013-04-22 10:12:00,
2013-04-22 06:42:00,30.0,21.0,-100.00,SE,138,5.0,7.0,69,0.00,,,0.00,0.000000,,2013-04-22 10:42:00,
2013-04-22 06:53:00,30.0,21.0,-100.00,SE,138,5.0,7.0,69,0.00,,,0.00,0.000000,,2013-04-22 10:53:00,
2013-04-22 07:02:00,30.0,21.0,-100.00,SE,138,5.0,7.0,69,0.00,,,0.00,0.000000,,2013-04-22 11:02:00,
2013-04-22 07:12:00,30.0,21.0,-100.00,SE,138,5.0,7.0,69,0.00,,,0.00,0.000000,,2013-04-22 11:12:00,
2013-04-22 07:42:00,32.0,24.0,-100.00,SE,135,5.0,6.0,72,0.00,,,0.00,15.000000,,2013-04-22 11:42:00,
2013-04-22 07:53:00,32.0,24.0,-100.00,SE,135,5.0,6.0,72,0.00,,,0.00,15.000000,,2013-04-22 11:53:00,
2013-04-22 08:02:00,32.0,24.0,-100.00,SE,135,5.0,6.0,72,0.00,,,0.00,15.000000,,2013-04-22 12:02:00,
2013-04-22 08:12:00,32.0,24.0,-100.00,SE,135,5.0,6.0,72,0.00,,,0.00,15.000000,,2013-04-22 12:12:00,
2013-04-22 08:42:00,34.0,24.0,-100.00,SE,131,5.0,7.0,66,0.00,,,0.00,54.000000,,2013-04-22 12:42:00,
2013-04-22 08:52:00,34.0,24.0,-100.00,SE,131,5.0,7.0,66,0.00,,,0.00,54.000000,,2013-04-22 12:52:00,
2013-04-22 09:01:00,34.0,24.0,-100.00,SE,131,5.0,7.0,66,0.00,,,0.00,54.000000,,2013-04-22 13:01:00,
2013-04-22 09:11:00,34.0,24.0,-100.00,SE,131,5.0,7.0,66,0.00,,,0.00,54.000000,,2013-04-22 13:11:00,
2013-04-22 09:42:00,40.0,26.0,-100.00,ESE,117,4.0,12.0,58,0.00,,,0.00,287.000000,,2013-04-22 13:42:00,
2013-04-22 09:53:00,40.0,26.0,-100.00,ESE,117,4.0,12.0,58,0.00,,,0.00,287.000000,,2013-04-22 13:53:00,
2013-04-22 10:02:00,40.0,26.0,-100.00,ESE,117,4.0,12.0,58,0.00,,,0.00,287.000000,,2013-04-22 14:02:00,
2013-04-22 10:12:00,40.0,26.0,-100.00,ESE,117,4.0,12.0,58,0.00,,,0.00,287.000000,,2013-04-22 14:12:00,
2013-04-22 10:42:00,43.0,21.0,-100.00,SE,136,5.0,11.0,41,0.00,,,0.00,509.000000,,2013-04-22 14:42:00,
2013-04-22 10:52:00,43.0,21.0,-100.00,SE,136,5.0,11.0,41,0.00,,,0.00,509.000000,,2013-04-22 14:52:00,
2013-04-22 11:02:00,43.0,21.0,-100.00,SE,136,5.0,11.0,41,0.00,,,0.00,509.000000,,2013-04-22 15:02:00,
2013-04-22 11:12:00,43.0,21.0,-100.00,SE,136,5.0,11.0,41,0.00,,,0.00,509.000000,,2013-04-22 15:12:00,
2013-04-22 11:43:00,44.0,18.0,-100.00,ESE,110,5.0,12.0,35,0.00,,,0.00,667.000000,,2013-04-22 15:43:00,
2013-04-22 11:53:00,44.0,18.0,-100.00,ESE,110,5.0,12.0,35,0.00,,,0.00,667.000000,,2013-04-22 15:53:00,
2013-04-22 12:03:00,44.0,18.0,-100.00,ESE,110,5.0,12.0,35,0.00,,,0.00,667.000000,,2013-04-22 16:03:00,
2013-04-22 12:12:00,44.0,18.0,-100.00,ESE,110,5.0,12.0,35,0.00,,,0.00,667.000000,,2013-04-22 16:12:00,
2013-04-22 12:42:00,47.0,17.0,-100.00,SE,134,5.0,11.0,30,0.00,,,0.00,775.000000,,2013-04-22 16:42:00,
2013-04-22 12:52:00,47.0,17.0,-100.00,SE,134,5.0,11.0,30,0.00,,,0.00,775.000000,,2013-04-22 16:52:00,
2013-04-22 13:02:00,47.0,17.0,-100.00,SE,134,5.0,11.0,30,0.00,,,0.00,775.000000,,2013-04-22 17:02:00,
2013-04-22 13:12:00,47.0,17.0,-100.00,SE,134,5.0,11.0,30,0.00,,,0.00,775.000000,,2013-04-22 17:12:00,
2013-04-22 13:32:00,50.0,20.0,-100.00,SSE,150,5.0,12.0,30,0.00,,,0.00,831.000000,,2013-04-22 17:32:00,
2013-04-22 13:43:00,50.0,20.0,-100.00,SSE,150,5.0,12.0,30,0.00,,,0.00,831.000000,,2013-04-22 17:43:00,
2013-04-22 13:52:00,50.0,20.0,-100.00,SSE,150,5.0,12.0,30,0.00,,,0.00,831.000000,,2013-04-22 17:52:00,
2013-04-22 14:02:00,50.0,20.0,-100.00,SSE,150,5.0,12.0,30,0.00,,,0.00,831.000000,,2013-04-22 18:02:00,
2013-04-22 14:12:00,50.0,20.0,-100.00,SSE,150,5.0,12.0,30,0.00,,,0.00,831.000000,,2013-04-22 18:12:00,
2013-04-22 14:42:00,51.0,19.0,-100.00,ESE,107,5.0,13.0,28,0.00,,,0.00,835.000000,,2013-04-22 18:42:00,
2013-04-22 14:52:00,51.0,19.0,-100.00,ESE,107,5.0,13.0,28,0.00,,,0.00,835.000000,,2013-04-22 18:52:00,
2013-04-22 15:02:00,51.0,19.0,-100.00,ESE,107,5.0,13.0,28,0.00,,,0.00,835.000000,,2013-04-22 19:02:00,
2013-04-22 15:12:00,51.0,19.0,-100.00,ESE,107,5.0,13.0,28,0.00,,,0.00,835.000000,,2013-04-22 19:12:00,
2013-04-22 15:42:00,52.0,24.0,-100.00,SE,133,4.0,12.0,33,0.00,,,0.00,785.000000,,2013-04-22 19:42:00,
2013-04-22 15:53:00,52.0,24.0,-100.00,SE,133,4.0,12.0,33,0.00,,,0.00,785.000000,,2013-04-22 19:53:00,
2013-04-22 16:02:00,52.0,24.0,-100.00,SE,133,4.0,12.0,33,0.00,,,0.00,785.000000,,2013-04-22 20:02:00,
2013-04-22 16:11:00,52.0,24.0,-100.00,SE,133,4.0,12.0,33,0.00,,,0.00,785.000000,,2013-04-22 20:11:00,
2013-04-22 16:42:00,52.0,22.0,-100.00,ESE,116,4.0,10.0,30,0.00,,,0.00,685.000000,,2013-04-22 20:42:00,
2013-04-22 16:52:00,52.0,22.0,-100.00,ESE,116,4.0,10.0,30,0.00,,,0.00,685.000000,,2013-04-22 20:52:00,
2013-04-22 17:02:00,52.0,22.0,-100.00,ESE,116,4.0,10.0,30,0.00,,,0.00,685.000000,,2013-04-22 21:02:00,
2013-04-22 17:12:00,52.0,22.0,-100.00,ESE,116,4.0,10.0,30,0.00,,,0.00,685.000000,,2013-04-22 21:12:00,
2013-04-22 17:43:00,51.0,23.0,-100.00,ESE,122,5.0,9.0,33,0.00,,,0.00,533.000000,,2013-04-22 21:43:00,
2013-04-22 17:53:00,51.0,23.0,-100.00,ESE,122,5.0,9.0,33,0.00,,,0.00,533.000000,,2013-04-22 21:53:00,
2013-04-22 18:03:00,51.0,23.0,-100.00,ESE,122,5.0,9.0,33,0.00,,,0.00,533.000000,,2013-04-22 22:03:00,
2013-04-22 18:12:00,51.0,23.0,-100.00,ESE,122,5.0,9.0,33,0.00,,,0.00,533.000000,,2013-04-22 22:12:00,
2013-04-22 18:42:00,48.0,25.0,-100.00,ESE,113,5.0,11.0,41,0.00,,,0.00,334.000000,,2013-04-22 22:42:00,
2013-04-22 18:52:00,48.0,25.0,-100.00,ESE,113,5.0,11.0,41,0.00,,,0.00,334.000000,,2013-04-22 22:52:00,
2013-04-22 19:02:00,48.0,25.0,-100.00,ESE,113,5.0,11.0,41,0.00,,,0.00,334.000000,,2013-04-22 23:02:00,
2013-04-22 19:12:00,48.0,25.0,-100.00,ESE,113,5.0,11.0,41,0.00,,,0.00,334.000000,,2013-04-22 23:12:00,
2013-04-22 19:43:00,44.0,26.0,-100.00,ESE,116,4.0,9.0,49,0.00,,,0.00,115.000000,,2013-04-22 23:43:00,
2013-04-22 19:52:00,44.0,26.0,-100.00,ESE,116,4.0,9.0,49,0.00,,,0.00,115.000000,,2013-04-22 23:52:00,
2013-04-22 20:02:00,44.0,26.0,-100.00,ESE,116,4.0,9.0,49,0.00,,,0.00,115.000000,,2013-04-23 00:02:00,
2013-04-22 20:12:00,44.0,26.0,-100.00,ESE,116,4.0,9.0,49,0.00,,,0.00,115.000000,,2013-04-23 00:12:00,
2013-04-22 20:42:00,40.0,26.0,-100.00,ESE,104,4.0,9.0,58,0.00,,,0.00,16.000000,,2013-04-23 00:42:00,
2013-04-22 20:52:00,40.0,26.0,-100.00,ESE,104,4.0,9.0,58,0.00,,,0.00,16.000000,,2013-04-23 00:52:00,
2013-04-22 21:01:00,40.0,26.0,-100.00,ESE,104,4.0,9.0,58,0.00,,,0.00,16.000000,,2013-04-23 01:01:00,
2013-04-22 21:11:00,40.0,26.0,-100.00,ESE,104,4.0,9.0,58,0.00,,,0.00,16.000000,,2013-04-23 01:11:00,
2013-04-22 21:42:00,38.0,28.0,-100.00,SE,128,5.0,10.0,68,0.00,,,0.00,0.000000,,2013-04-23 01:42:00,
2013-04-22 21:52:00,38.0,28.0,-100.00,SE,128,5.0,10.0,68,0.00,,,0.00,0.000000,,2013-04-23 01:52:00,
2013-04-22 22:02:00,38.0,28.0,-100.00,SE,128,5.0,10.0,68,0.00,,,0.00,0.000000,,2013-04-23 02:02:00,
2013-04-22 22:12:00,38.0,28.0,-100.00,SE,128,5.0,10.0,68,0.00,,,0.00,0.000000,,2013-04-23 02:12:00,
2013-04-22 22:42:00,37.0,30.0,-100.00,ESE,122,5.0,9.0,75,0.00,,,0.00,0.000000,,2013-04-23 02:42:00,
2013-04-22 22:52:00,37.0,30.0,-100.00,ESE,122,5.0,9.0,75,0.00,,,0.00,0.000000,,2013-04-23 02:52:00,
2013-04-22 23:02:00,37.0,30.0,-100.00,ESE,122,5.0,9.0,75,0.00,,,0.00,0.000000,,2013-04-23 03:02:00,
2013-04-22 23:11:00,37.0,30.0,-100.00,ESE,122,5.0,9.0,75,0.00,,,0.00,0.000000,,2013-04-23 03:11:00,
2013-04-22 23:43:00,36.0,30.0,-100.00,SE,134,5.0,8.0,79,0.00,,,0.00,0.000000,,2013-04-23 03:43:00,
2013-04-22 23:53:00,36.0,30.0,-100.00,SE,134,5.0,8.0,79,0.00,,,0.00,0.000000,,2013-04-23 03:53:00,